This demonstration page uses our WeatherBlox Daily Observations layout. Learn more.

39.08367, -84.50855

Hourly Observations for October 16, 2019

Temp ( °F °C ) Dew Point ( °F °C ) Humidity (%) Winds ( mph kmh ) Pressure ( in mb ) Visibility ( mi km ) Precip ( " mm )
12:21 am 00:21 Cloudy with Nearby Thunderstorms 65 18.3 60 15.6 84 84 SSW 16 26 29.78 1009 10 16.0934 0.01 0.254
12:51 am 00:51 Cloudy with Light Rain 63 17 61 16 94 94 S 8 13 29.76 1008 10 16.0934 0.03 0.762
12:53 am 00:53 Cloudy with Light Rain 63 17.2 61 16.1 93 93 S 8 13 29.77 1008 10 16.0934 0.03 0.762
1:53 am 01:53 Cloudy with Light Rain 63 17.2 61 16.1 93 93 SSW 7 11 29.77 1008 10 16.0934 0.001 0.001
2:53 am 02:53 Cloudy 62 16.7 61 16.1 96 96 S 5 7 29.73 1007 10 16.0934 0.07 1.778
3:53 am 03:53 Cloudy 62 16.7 61 16.1 96 96 SW 6 9 29.7 1006 10 16.0934 0.01 0.254
4:02 am 04:02 Cloudy with Light Rain 61 16.1 59 15 93 93 NW 28 44 29.74 1007 8 12.87472 0.001 0.001
4:21 am 04:21 Cloudy with Light Rain 54 12.2 49 9.4 83 83 NW 8 13 29.76 1008 10 16.0934 0.001 0.001
4:53 am 04:53 Cloudy with Light Rain 52 11.1 48 8.9 86 86 WNW 10 17 29.78 1008 7 11.26538 0.05 1.27
5:53 am 05:53 Cloudy with Heavy Rain 49 9.4 46 7.8 90 90 NW 6 9 29.79 1009 2.5 4.02335 0.09 2.286
6:05 am 06:05 Cloudy with Rain 48 8.9 45 7.2 89 89 NNW 9 15 29.79 1009 4 6.43736 0.03 0.762
6:53 am 06:53 Cloudy with Light Rain 49 9.4 44 6.7 83 83 NW 5 7 29.78 1009 8 12.87472 0.04 1.016
7:12 am 07:12 Cloudy 49 9.4 44 6.7 83 83 WNW 10 17 29.8 1009 10 16.0934 0.001 0.001
7:53 am 07:53 Mostly Cloudy 48 8.9 42 5.6 80 80 WNW 12 19 29.8 1009 10 16.0934 0.001 0.001
8:53 am 08:53 Mostly Cloudy 48 8.9 40 4.4 74 74 WNW 9 15 29.83 1010 10 16.0934 0 0
9:53 am 09:53 Cloudy 48 8.9 40 4.4 74 74 WNW 14 22 29.86 1011 10 16.0934 0 0
10:53 am 10:53 Cloudy 47 8.3 39 3.9 74 74 NW 7 11 29.88 1012 10 16.0934 0 0
11:28 am 11:28 Cloudy 48 8.9 38 3.3 68 68 W 7 11 29.9 1013 10 16.0934 0 0
11:53 am 11:53 Cloudy 48 8.9 38 3.3 68 68 W 13 20 29.9 1012 10 16.0934 0 0
12:53 pm 12:53 Cloudy 49 9.4 38 3.3 66 66 W 14 22 29.9 1013 10 16.0934 0 0
1:53 pm 13:53 Cloudy 50 10 38 3.3 63 63 W 9 15 29.9 1013 10 16.0934 0 0
2:53 pm 14:53 Cloudy 50 10 38 3.3 63 63 W 13 20 29.9 1012 10 16.0934 0 0
3:53 pm 15:53 Cloudy 50 10 39 3.9 66 66 W 9 15 29.9 1013 10 16.0934 0 0
4:53 pm 16:53 Cloudy 51 10.6 39 3.9 64 64 W 12 19 29.91 1013 10 16.0934 0 0
5:53 pm 17:53 Cloudy 52 11.1 39 3.9 61 61 W 15 24 29.92 1013 10 16.0934 0 0
6:53 pm 18:53 Cloudy 51 10.6 38 3.3 61 61 W 13 20 29.94 1014 10 16.0934 0 0
7:53 pm 19:53 Cloudy 51 10.6 37 2.8 59 59 NW 8 13 29.96 1015 10 16.0934 0 0
8:53 pm 20:53 Cloudy 51 10.6 37 2.8 59 59 W 13 20 29.97 1015 10 16.0934 0 0
9:53 pm 21:53 Cloudy 51 10.6 37 2.8 59 59 W 12 19 29.98 1015 10 16.0934 0 0
10:53 pm 22:53 Mostly Cloudy 50 10 38 3.3 63 63 W 9 15 30 1016 10 16.0934 0 0
11:53 pm 23:53 Cloudy 49 9.4 37 2.8 64 64 W 14 22 30 1016 10 16.0934 0 0

Powered by AerisWeather